FDX5VV VABB-VOHS

Flight info

Callsign FDX5VV
Flight time 0h 36m
Altitude 31000
Route VEVAK2A PPN W28 PONIP NAMSA8
Aircraft B77L/H-SDE1E2E3FGHIJ2J3J4J5M1RWXY/LB1D1

Departure

Time 2026-05-07 06:28
Airport Chhatrapati Shivaji Maharaj International Airport (VABB)

Arrival

Time 2026-05-07 07:05
Airport Rajiv Gandhi International Airport (VOHS)
Time Latitude Longitude Altitude Speed Heading
2026-05-07 05:57 19.09307 72.87452 36 ft 0 kts 220°
2026-05-07 06:20 19.09308 72.87453 38 ft 2 kts 220°
2026-05-07 06:20 19.09329 72.87471 37 ft 4 kts 217°
2026-05-07 06:21 19.09351 72.87487 35 ft 4 kts 210°
2026-05-07 06:21 19.09374 72.87499 35 ft 4 kts 193°
2026-05-07 06:21 19.09396 72.87501 37 ft 4 kts 155°
2026-05-07 06:21 19.09405 72.87495 34 ft 1 kts 129°
2026-05-07 06:24 19.09402 72.87499 38 ft 4 kts 129°
2026-05-07 06:25 19.09344 72.87574 38 ft 16 kts 130°
2026-05-07 06:25 19.09289 72.87642 38 ft 14 kts 133°
2026-05-07 06:25 19.09193 72.87673 38 ft 16 kts 176°
2026-05-07 06:25 19.09141 72.87768 37 ft 18 kts 107°
2026-05-07 06:26 19.09064 72.87840 37 ft 15 kts 112°
2026-05-07 06:26 19.09059 72.87962 37 ft 18 kts 89°
2026-05-07 06:26 19.09023 72.88055 37 ft 14 kts 141°
2026-05-07 06:26 19.08936 72.88093 36 ft 16 kts 189°
2026-05-07 06:27 19.08887 72.87996 36 ft 16 kts 273°
2026-05-07 06:27 19.08888 72.87964 36 ft 0 kts 270°
2026-05-07 06:27 19.08888 72.87933 37 ft 27 kts 270°
2026-05-07 06:27 19.08879 72.87288 40 ft 142 kts 269°
2026-05-07 06:28 19.08863 72.85954 135 ft 209 kts 269°
2026-05-07 06:28 19.08796 72.84397 1073 ft 220 kts 267°
2026-05-07 06:28 19.08667 72.82744 2310 ft 227 kts 266°
2026-05-07 06:28 19.08495 72.81075 3648 ft 230 kts 265°
2026-05-07 06:29 19.08285 72.79393 4993 ft 231 kts 263°
2026-05-07 06:29 19.08047 72.77690 6178 ft 239 kts 261°
2026-05-07 06:29 19.07779 72.75917 7257 ft 249 kts 259°
2026-05-07 06:29 19.07482 72.74103 8477 ft 250 kts 258°
2026-05-07 06:30 19.07165 72.72295 9806 ft 250 kts 257°
2026-05-07 06:30 19.06831 72.70495 11026 ft 251 kts 256°
2026-05-07 06:30 19.06474 72.68670 12259 ft 257 kts 256°
2026-05-07 06:30 19.06094 72.66807 13600 ft 261 kts 255°
2026-05-07 06:31 19.05700 72.64946 14813 ft 264 kts 256°
2026-05-07 06:31 19.05292 72.63047 16080 ft 266 kts 257°
2026-05-07 06:31 19.04876 72.61118 17260 ft 273 kts 258°
2026-05-07 06:31 19.04449 72.59120 18304 ft 284 kts 258°
2026-05-07 06:32 19.04011 72.57032 19171 ft 299 kts 260°
2026-05-07 06:32 19.03489 72.54856 19970 ft 317 kts 250°
2026-05-07 06:32 19.02136 72.52824 20267 ft 364 kts 224°
2026-05-07 06:32 18.99817 72.51447 20621 ft 404 kts 198°
2026-05-07 06:33 18.96748 72.51208 21504 ft 426 kts 173°
2026-05-07 06:33 18.91522 72.54257 23390 ft 447 kts 128°
2026-05-07 06:33 18.89118 72.60248 25122 ft 448 kts 100°
2026-05-07 06:33 18.87894 72.66716 27186 ft 449 kts 99°
2026-05-07 06:34 18.86648 72.73059 29775 ft 443 kts 101°
2026-05-07 06:34 18.85250 72.79336 32160 ft 436 kts 103°
2026-05-07 06:34 18.83790 72.85548 33877 ft 442 kts 104°
2026-05-07 06:34 18.82265 72.91962 34587 ft 446 kts 104°
2026-05-07 06:35 18.80779 72.98220 34875 ft 445 kts 104°
2026-05-07 06:35 18.79261 73.04622 34852 ft 440 kts 104°
2026-05-07 06:35 18.76367 73.16802 34841 ft 424 kts 104°
2026-05-07 06:36 18.73489 73.28879 34888 ft 430 kts 104°
2026-05-07 06:36 18.70520 73.41298 34887 ft 439 kts 104°
2026-05-07 06:37 18.67548 73.53694 34853 ft 431 kts 105°
2026-05-07 06:37 18.64633 73.65812 34877 ft 424 kts 105°
2026-05-07 06:38 18.61692 73.78002 34891 ft 436 kts 105°
2026-05-07 06:38 18.58629 73.90487 34885 ft 442 kts 108°
2026-05-07 06:39 18.53803 74.02182 34861 ft 430 kts 116°
2026-05-07 06:39 18.48820 74.13559 34876 ft 424 kts 116°
2026-05-07 06:40 18.44728 74.22992 34894 ft 430 kts 115°
2026-05-07 06:40 18.38832 74.36560 34895 ft 439 kts 116°
2026-05-07 06:41 18.34618 74.46238 34868 ft 434 kts 116°
2026-05-07 06:41 18.29647 74.57634 34885 ft 425 kts 116°
2026-05-07 06:42 18.24986 74.68299 34905 ft 426 kts 116°
2026-05-07 06:42 18.19994 74.79784 34917 ft 436 kts 115°
2026-05-07 06:43 18.14944 74.91431 34898 ft 436 kts 115°
2026-05-07 06:43 18.09978 75.02854 34896 ft 425 kts 116°
2026-05-07 06:44 18.05082 75.14092 34920 ft 424 kts 116°
2026-05-07 06:44 18.00429 75.24750 34917 ft 434 kts 116°
2026-05-07 06:45 17.95364 75.36336 34899 ft 435 kts 116°
2026-05-07 06:45 17.90367 75.47742 34900 ft 425 kts 116°
2026-05-07 06:46 17.85455 75.58933 34913 ft 421 kts 116°
2026-05-07 06:46 17.80487 75.70228 34929 ft 431 kts 116°
2026-05-07 06:47 17.75418 75.81737 34903 ft 434 kts 116°
2026-05-07 06:47 17.70417 75.93070 34903 ft 423 kts 116°
2026-05-07 06:48 17.65498 76.04178 34916 ft 418 kts 116°
2026-05-07 06:48 17.60515 76.15345 34932 ft 428 kts 116°
2026-05-07 06:49 17.55464 76.26660 34920 ft 431 kts 116°
2026-05-07 06:49 17.50441 76.37896 34920 ft 421 kts 116°
2026-05-07 06:50 17.45502 76.48921 34927 ft 415 kts 116°
2026-05-07 06:50 17.40573 76.59904 34950 ft 422 kts 116°
2026-05-07 06:51 17.38075 76.65464 34295 ft 421 kts 116°
2026-05-07 06:51 17.35574 76.71027 33067 ft 424 kts 116°
2026-05-07 06:51 17.33057 76.76641 31761 ft 428 kts 114°
2026-05-07 06:51 17.31374 76.82638 30623 ft 428 kts 100°
2026-05-07 06:52 17.30866 76.88777 29740 ft 420 kts 92°
2026-05-07 06:52 17.30612 76.94836 28699 ft 414 kts 92°
2026-05-07 06:52 17.30345 77.00830 27671 ft 409 kts 92°
2026-05-07 06:52 17.30055 77.06737 26700 ft 405 kts 92°
2026-05-07 06:53 17.29755 77.12597 25794 ft 401 kts 92°
2026-05-07 06:53 17.29453 77.18405 24920 ft 397 kts 91°
2026-05-07 06:53 17.29153 77.24156 24082 ft 394 kts 91°
2026-05-07 06:53 17.28854 77.29848 23221 ft 390 kts 91°
2026-05-07 06:54 17.28560 77.35456 22399 ft 382 kts 91°
2026-05-07 06:54 17.28270 77.40938 21601 ft 373 kts 91°
2026-05-07 06:54 17.27985 77.46296 20799 ft 365 kts 92°
2026-05-07 06:54 17.27704 77.51557 20002 ft 357 kts 92°
2026-05-07 06:55 17.27432 77.56614 19212 ft 351 kts 92°
2026-05-07 06:55 17.27156 77.61744 18487 ft 342 kts 92°
2026-05-07 06:55 17.26891 77.66642 17625 ft 336 kts 92°
2026-05-07 06:55 17.26630 77.71436 16715 ft 331 kts 93°
2026-05-07 06:56 17.26351 77.76219 15763 ft 329 kts 94°
2026-05-07 06:56 17.25982 77.80967 14872 ft 324 kts 94°
2026-05-07 06:56 17.25604 77.85704 14006 ft 321 kts 94°
2026-05-07 06:56 17.25248 77.90262 13139 ft 315 kts 94°
2026-05-07 06:57 17.24895 77.94768 12340 ft 307 kts 94°
2026-05-07 06:57 17.24553 77.99148 11598 ft 297 kts 94°
2026-05-07 06:57 17.24226 78.03346 10980 ft 284 kts 93°
2026-05-07 06:57 17.23907 78.07392 10209 ft 277 kts 93°
2026-05-07 06:58 17.23595 78.11379 9421 ft 271 kts 94°
2026-05-07 06:58 17.23287 78.15309 8511 ft 270 kts 94°
2026-05-07 06:58 17.23091 78.17789 8074 ft 264 kts 95°
2026-05-07 06:58 17.22943 78.19662 7863 ft 253 kts 95°
2026-05-07 06:59 17.22774 78.21800 7631 ft 241 kts 95°
2026-05-07 06:59 17.22403 78.24849 7006 ft 231 kts 114°
2026-05-07 06:59 17.20498 78.26654 6415 ft 228 kts 163°
2026-05-07 06:59 17.17550 78.26146 5894 ft 221 kts 217°
2026-05-07 07:00 17.16216 78.23721 5474 ft 231 kts 265°
2026-05-07 07:00 17.16701 78.22145 5331 ft 231 kts 309°
2026-05-07 07:00 17.18064 78.21325 5326 ft 237 kts 352°
2026-05-07 07:00 17.19699 78.21640 5353 ft 247 kts 31°
2026-05-07 07:01 17.21492 78.23524 5197 ft 250 kts 61°
2026-05-07 07:01 17.22156 78.25168 4939 ft 244 kts 76°
2026-05-07 07:01 17.22468 78.26884 4668 ft 237 kts 84°
2026-05-07 07:01 17.22628 78.28567 4377 ft 229 kts 86°
2026-05-07 07:02 17.22712 78.30214 4063 ft 224 kts 90°
2026-05-07 07:02 17.22733 78.31808 3797 ft 211 kts 92°
2026-05-07 07:02 17.22750 78.33245 3552 ft 186 kts 91°
2026-05-07 07:02 17.22766 78.34514 3290 ft 160 kts 91°
2026-05-07 07:03 17.22781 78.35619 3062 ft 146 kts 93°
2026-05-07 07:03 17.22795 78.36685 2873 ft 147 kts 91°
2026-05-07 07:03 17.22808 78.37756 2700 ft 146 kts 91°
2026-05-07 07:03 17.22825 78.38845 2490 ft 150 kts 90°
2026-05-07 07:04 17.22842 78.39891 2273 ft 140 kts 91°
2026-05-07 07:04 17.22867 78.40931 2140 ft 147 kts 92°
2026-05-07 07:04 17.22868 78.41989 1998 ft 139 kts 90°
2026-05-07 07:04 17.22878 78.42895 2008 ft 108 kts 89°
2026-05-07 07:05 17.22931 78.43420 2011 ft 49 kts 66°
2026-05-07 07:05 17.23047 78.43625 2015 ft 28 kts 59°
2026-05-07 07:05 17.23164 78.43699 2017 ft 13 kts
2026-05-07 07:05 17.23263 78.43699 2017 ft 16 kts 359°
2026-05-07 07:06 17.23342 78.43632 2016 ft 15 kts 271°
2026-05-07 07:06 17.23338 78.43581 2016 ft 3 kts 269°
2026-05-07 07:06 17.23338 78.43570 2016 ft 0 kts 269°
2026-05-07 07:07 17.23337 78.43547 2016 ft 9 kts 269°
2026-05-07 07:07 17.23336 78.43441 2017 ft 17 kts 270°
2026-05-07 07:07 17.23336 78.43401 2017 ft 3 kts 270°
2026-05-07 07:08 17.23336 78.43359 2016 ft 8 kts 270°
2026-05-07 07:08 17.23336 78.43293 2015 ft 0 kts 270°
2026-05-07 07:09 17.23375 78.43291 2012 ft 0 kts